Terug naar catalogus

COSMOS 249 DEB

ActiefLEO
NORAD 18468·DEBRIS·🇷🇺 Russia

Gelanceerd Oct 20, 1968 vanaf Baikonur Cosmodrome

Loading…

Volgende Passages (komende 24 uur)

TLE

VersSource: Space-Track

Epoch: Sep 14, 2026, 01:56 UTC

1 18468U 68091DD  26257.08074761  .00000165  00000-0  28699-3 0  9995
2 18468  62.2521 293.9357 0775606 106.6592 262.0941 12.82252662610877

Volg COSMOS 249 DEB in realtime met AllMySat

Download on the App Store